TimeCST,TemperatureF,Dew PointF,Humidity,Sea Level PressureIn,VisibilityMPH,Wind Direction,Wind SpeedMPH,Gust SpeedMPH,PrecipitationIn,Events,Conditions,WindDirDegrees,DateUTC
12:55 AM,39.2,33.8,81,30.40,10.0,ENE,5.8,-,N/A,,Clear,60,2012-11-16 06:55:00
1:55 AM,37.9,32.9,82,30.40,10.0,ENE,4.6,-,N/A,,Clear,70,2012-11-16 07:55:00
2:55 AM,35.4,32.2,88,30.42,10.0,ENE,5.8,-,N/A,,Clear,60,2012-11-16 08:55:00
3:55 AM,36.7,33.1,87,30.41,10.0,ENE,3.5,-,N/A,,Clear,60,2012-11-16 09:55:00
4:55 AM,35.4,32.2,88,30.40,10.0,ENE,4.6,-,N/A,,Clear,60,2012-11-16 10:55:00
5:55 AM,36.9,32.4,84,30.41,10.0,Calm,Calm,-,N/A,,Clear,0,2012-11-16 11:55:00
6:55 AM,34.3,32.0,91,30.43,10.0,NNE,4.6,-,N/A,,Clear,20,2012-11-16 12:55:00
7:55 AM,34.0,31.6,91,30.45,10.0,NE,3.5,-,N/A,,Clear,40,2012-11-16 13:55:00
8:55 AM,44.6,35.6,71,30.42,10.0,ESE,3.5,-,N/A,,Clear,120,2012-11-16 14:55:00
9:56 AM,48.2,35.6,62,30.42,10.0,ESE,3.5,-,N/A,,Clear,110,2012-11-16 15:56:00
10:55 AM,53.6,35.6,51,30.42,10.0,SE,4.6,-,N/A,,Clear,130,2012-11-16 16:55:00
11:55 AM,58.1,32.4,38,30.40,10.0,Variable,3.5,-,N/A,,Clear,0,2012-11-16 17:55:00
12:55 PM,59.7,30.9,34,30.37,10.0,SSE,8.1,-,N/A,,Clear,150,2012-11-16 18:55:00
1:55 PM,61.2,30.4,31,30.35,10.0,South,9.2,-,N/A,,Clear,180,2012-11-16 19:55:00
2:55 PM,61.2,28.8,29,30.34,10.0,South,11.5,-,N/A,,Clear,180,2012-11-16 20:55:00
3:55 PM,60.4,28.4,30,30.33,10.0,SE,12.7,-,N/A,,Clear,140,2012-11-16 21:55:00
4:55 PM,57.6,30.9,36,30.33,10.0,SSE,6.9,-,N/A,,Clear,160,2012-11-16 22:55:00
5:55 PM,52.3,30.2,43,30.33,10.0,SSE,5.8,-,N/A,,Clear,160,2012-11-16 23:55:00
6:55 PM,49.3,31.3,50,30.33,10.0,Calm,Calm,-,N/A,,Clear,0,2012-11-17 00:55:00
7:55 PM,48.7,30.6,50,30.33,10.0,SSE,6.9,-,N/A,,Clear,150,2012-11-17 01:55:00
8:55 PM,47.1,30.6,53,30.33,10.0,SSE,8.1,-,N/A,,Clear,160,2012-11-17 02:55:00
9:55 PM,45.9,30.6,55,30.33,10.0,SSE,8.1,-,N/A,,Clear,150,2012-11-17 03:55:00
10:55 PM,44.6,30.6,58,30.34,10.0,SE,9.2,-,N/A,,Clear,130,2012-11-17 04:55:00
11:55 PM,41.7,30.9,66,30.35,10.0,SE,6.9,-,N/A,,Clear,140,2012-11-17 05:55:00